SCP
0 0 0 0 0 0 0 0 0 0 0 0 0 0 0 0 0 0 0 0 0 0 0 0 0 0 0 0 0 0 0 0 0 0 0 0 0 0
0 0 0 0 0 0 0 0 0 0 0 0 0 0 0 0 0 0 0 0 0 0 0 0 0 0 0 0 0 0 0 0 0 0 0 0 0 0
0 0 0 0 0 0 0 0 0 0 0 0 0 0 0 0 0 0 0 0 0 0 0 0 0 0 0 0 0 0 0 0 0 0 0 0 0 0
0 0 0 0 0 0 0 0 0 0 0 0 0 0 0 0 0 0 0 0 0 0 0 0 0 0 0 0 0 0 0 0 0 0 0 0 0 0
0 0 0 0 0 0 0 0 0 0 0 0 0 0 0 0 0 0 0 0 0 0 0 0 0 0 0 0 0 0 0 0 0 0 0 0 0 0
0 0 0 0 0 0 0 0 0 0 0 0 0 0 0 0 0 0 0 0 0 0 0 0 0 0 0 0 0 0 0 0 0 0 0 0 0 0
0 0 0 0 0 0 0 0 0 0 0 0 0 0 0 0 0 0 0 0 0 0 0 0 0 0 0 0 0 0 0 0 0 0 0 0 0 0
0 0 0 0 0 0 0 0 0 0 0 0 0 0 0 0 0 0 0 0 0 0 0 0 0 0 0 0 0 0 0 0 0 0 0 0 0 0
0 0 0 0 0 0 0 0 0 0 0 0 0 0 0 0 0 0 0 0 0 0 0 0 0 0 0 0 0 0 0 0 0 0 0 0 0 0
0 0 0 0 0 0 0 0 0 0 0 0 0 0 0 0 0 0 0 0 0 0 0 0 0 0 0 0 0 0 0 0 0 0 0 0 0 0
0 0 0 0 0 0 0 0 0 0 0 0 0 0 0 0 0 0 0 0 0 0 0 0 0 0 0 0 0 0 0 0 0 0 0 0 0 0
0 0 0 0 0 0 0 0 0 0 0 0 0 0 0 0 0 0 0 0 0 0 0 0 0 0 0 0 0 0 0 0 0 0 0 0 0 0
0 0 0 0 0 0 0 0 0 0 0 0 0 0 0 0 0 0 0 0 0 0 0 0 0 0 0 0 0 0 0 0 0 0 0 0 0 0
0 0 0 0 0 0 0 0 0 0 0 0 0 0 0 0 0 0 0 0 0 0 0 0 0 0 0 0 0 0 0 0 0 0 0 0 0 0
0 0 0 0 0 0 0 0 0 0 0 0 0 0 0 0 0 0 0 0 0 0 0 0 0 0 0 0 0 0 0 0 0 0 0 0 0 0
0 0 0 0 0 0 0 0 0 0 0 0 0 0 0 0 0 0 0 0 0 0 0 0 0 0 0 0 0 0 0 0 0 0 0 0 0 0
0 0 0 0 0 0 0 0 0 0 0 0 0 0 0 0 0 0 0 0 0 0 0 0 0 0 0 0 0 0 0 0 0 0 0 0 0 0
0 0 0 0 0 0 0 0 0 0 0 0 0 0 0 0 0 0 0 0 0 0 0 0 0 0 0 0 0 0 0 0 0 0 0 0 0 0
0 0 0 0 0 0 0 0 0 0 0 0 0 0 0 0 0 0 0 0 0 0 0 0 0 0 0 0 0 0 0 0 0 0 0 0 0 0
0 0 0 0 0 0 0 0 0 0 0 0 0 0 0 0 0 0 0 0 0 0 0 0 0 0 0 0 0 0 0 0 0 0 0 0 0 0
0 0 0 0 0 0 0 0 0 0 0 0 0 0 0 0 0 0 0 0 0 0 0 0 0 0 0 0 0 0 0 0 0 0 0 0 0 0
0 0 0 0 0 0 0 0 0 0 0 0 0 0 0 0 0 0 0 0 0 0 0 0 0 0 0 0 0 0 0 0 0 0 0 0 0 0
0 0 0 0 0 0 0 0 0 0 0 0 0 0 0 0 0 0 0 0 0 0 0 0 0 0 0 0 0 0 0 0 0 0 0 0 0 0
Wind_Speed
9 9 9 9 8 9 10 10 12 17 18 10 5 6 7 8 16 13 12 23 31 31 31 30 29 28 26 25 24 22 19 17 15 13 13 15 15 17
8 9 10 9 9 9 10 11 11 14 18 11 9 8 10 12 19 14 12 28 29 30 30 29 28 27 26 24 24 23 20 19 17 15 14 14 14 15
9 10 12 11 10 10 10 11 12 12 17 15 11 10 11 12 13 11 12 12 14 26 29 29 28 27 26 24 23 23 21 20 19 17 16 15 15 15
11 11 12 11 12 11 11 12 12 12 15 19 14 11 12 12 12 12 12 12 11 23 28 28 27 26 25 24 23 22 21 20 19 18 16 16 16 15
11 12 12 12 13 11 12 13 12 12 13 15 16 12 10 9 11 11 12 10 13 17 23 24 24 24 24 23 22 22 21 20 19 18 17 16 16 16
12 12 12 12 13 14 13 13 13 13 12 13 13 12 10 9 8 9 10 9 10 12 16 17 20 22 22 22 22 21 20 20 20 19 18 16 15 15
12 12 12 15 19 17 13 11 10 10 11 10 11 11 10 8 8 8 11 10 10 9 9 9 10 9 11 15 19 20 21 21 20 20 19 17 15 15
11 9 10 13 17 22 25 24 21 14 11 10 10 11 11 10 9 10 10 11 10 4 7 10 8 10 9 8 16 21 21 21 21 20 19 17 16 15
8 8 8 10 15 9 17 23 20 22 21 13 12 12 13 11 12 13 12 12 12 8 9 12 8 10 9 11 20 20 21 21 21 20 19 17 16 16
7 8 9 9 11 14 13 12 9 10 14 10 10 12 13 12 12 12 12 12 11 9 8 10 8 8 10 9 17 21 21 22 21 21 19 17 16 15
8 8 9 9 17 23 14 9 8 9 15 19 20 19 22 22 18 9 8 9 10 7 5 6 6 8 8 8 11 18 20 21 22 21 20 18 16 14
6 7 13 14 18 21 11 7 9 10 8 8 11 15 13 14 18 9 7 8 8 6 3 4 4 5 6 4 4 5 9 16 21 21 20 18 16 9
6 5 6 15 19 19 16 6 13 14 5 7 8 8 7 6 7 7 7 7 8 8 5 3 4 3 5 6 5 4 4 5 7 11 16 18 17 13
6 4 6 15 17 17 13 14 19 15 6 7 8 8 8 7 7 7 9 9 10 11 9 7 6 5 5 6 6 5 5 4 5 6 7 12 15 16
5 10 12 14 14 10 13 17 13 6 7 8 8 9 7 8 8 7 8 8 10 11 11 12 11 8 8 8 6 5 5 4 3 4 6 7 8 8
5 7 11 11 9 10 10 8 6 6 8 7 8 9 8 7 7 6 7 6 7 6 7 10 11 11 10 10 9 9 7 6 4 3 3 5 6 7
4 2 1 2 3 4 5 5 5 6 7 7 8 9 9 9 8 7 6 6 6 6 6 4 7 9 11 9 9 9 8 8 7 5 4 5 6 8
5 2 3 3 4 5 6 6 6 6 6 7 8 8 9 9 9 8 7 6 6 6 6 5 4 4 5 9 15 11 9 8 6 5 4 4 6 7
4 3 3 4 4 5 5 6 6 6 6 7 8 8 8 9 9 9 8 7 7 6 6 5 4 4 6 6 8 18 11 7 6 5 5 5 5 6
3 4 4 4 4 4 5 5 6 6 6 6 7 7 7 8 9 9 8 8 8 8 6 5 5 5 6 5 4 5 17 10 6 6 4 3 3 5
4 4 4 4 4 4 5 5 6 6 7 7 7 8 7 8 8 8 8 12 10 7 8 7 6 10 6 5 6 5 6 16 12 6 4 4 4 5
5 5 4 4 4 4 4 5 5 6 7 6 7 7 7 7 9 10 9 9 8 8 9 8 8 6 5 7 8 6 5 5 12 16 13 8 4 7
5 5 4 4 4 3 4 5 6 6 6 6 6 6 7 7 8 8 9 8 8 9 9 8 6 4 5 7 7 7 7 5 4 6 8 13 15 11
Wind_Direction
243 246 248 254 252 252 254 256 270 288 292 290 274 250 263 271 280 285 285 293 297 299 300 299 298 296 295 295 295 290 290 292 289 284 277 267 263 265
243 247 251 254 255 256 256 257 255 264 279 285 280 272 273 280 285 288 288 293 297 298 297 297 295 293 291 290 290 289 287 288 288 285 280 277 271 272
249 250 255 256 259 261 262 261 260 261 272 281 278 276 271 273 280 280 280 281 285 291 295 294 292 290 287 285 283 283 283 283 282 282 282 282 280 276
252 254 259 261 262 264 265 266 266 262 267 278 282 278 273 272 274 275 283 284 283 290 292 292 290 287 284 281 278 276 277 278 278 279 280 281 284 283
251 254 258 261 266 266 266 268 269 267 263 270 278 279 277 273 275 278 278 279 284 287 292 292 291 288 285 280 275 272 272 272 273 275 277 279 284 287
250 252 254 256 263 267 268 267 268 269 267 268 274 279 278 273 271 283 289 284 286 290 288 289 290 291 288 281 274 271 271 269 269 269 270 271 277 281
251 249 251 260 268 277 280 278 275 274 275 274 277 281 283 286 286 287 289 290 284 278 283 286 290 287 287 285 282 272 265 263 262 263 263 263 268 273
251 252 256 270 280 286 292 295 292 288 289 285 287 287 289 288 287 285 286 288 289 268 278 286 282 280 277 267 267 267 264 260 257 256 256 257 260 265
243 251 264 268 288 286 288 290 290 290 293 293 289 286 287 284 281 279 274 273 274 277 283 283 278 276 274 271 269 262 258 256 253 250 249 249 253 258
239 244 255 265 273 281 274 274 266 270 279 280 267 270 273 274 267 270 273 274 271 267 263 275 277 275 276 267 266 259 253 248 247 244 243 242 245 250
244 247 255 259 279 291 293 286 279 277 291 296 297 299 301 305 304 298 290 286 286 283 258 264 278 284 274 261 257 253 248 244 241 239 237 236 236 241
249 250 268 278 289 297 297 290 292 291 288 293 298 299 296 294 299 294 285 281 282 283 254 257 278 298 297 275 254 252 245 240 236 234 232 230 227 226
255 248 254 285 295 301 308 301 293 304 311 301 294 290 286 279 276 268 257 257 261 257 255 271 276 288 292 307 306 275 255 243 231 228 226 223 220 214
243 245 260 286 298 307 312 303 309 323 318 303 299 299 299 296 289 278 267 257 250 253 252 241 249 253 273 288 289 301 292 254 230 217 207 213 216 216
234 261 279 295 308 313 304 307 320 318 301 301 303 301 296 289 289 286 278 269 261 252 247 238 238 241 241 252 274 294 305 290 260 228 206 200 197 197
264 273 288 301 304 300 303 309 303 292 299 299 300 299 298 298 298 297 297 296 286 271 249 239 232 229 235 239 250 264 269 282 292 277 235 208 196 195
222 210 233 278 287 290 290 289 290 298 304 302 302 306 308 309 308 306 296 296 287 291 291 267 235 225 226 229 239 246 253 257 261 266 245 214 202 198
219 201 239 258 274 286 295 299 299 299 302 304 304 305 308 309 308 307 302 297 294 291 288 284 267 225 218 232 226 239 244 250 255 252 241 219 206 198
212 212 235 250 264 276 283 288 293 296 298 298 300 303 305 307 307 309 309 307 300 293 286 277 261 236 228 240 232 211 221 233 237 240 231 217 205 197
192 214 230 241 255 268 277 284 290 296 297 298 300 301 303 306 307 308 309 306 305 302 296 279 253 239 237 252 275 229 208 217 224 224 218 215 214 198
208 217 224 234 249 262 273 280 285 291 294 298 300 302 304 305 304 305 306 309 312 304 300 292 271 268 257 253 258 249 221 213 219 218 202 191 185 180
207 215 222 229 241 254 267 276 284 288 293 294 298 302 303 303 304 306 307 308 306 299 295 290 282 269 230 226 239 248 245 222 222 235 248 251 193 180
205 209 218 228 237 249 259 270 278 285 288 292 298 302 305 306 305 304 305 306 305 305 305 302 295 265 242 236 240 243 238 224 205 204 227 239 243 248